Погода в Черном Отроге

Россия / Оренбургская область     51°53′04″N   56°00′03″E
В апреле 2022 года жителям России запретили посещать сайт meteo.paraplan.net по решению Генеральной прокуратуры. Аудитория сайта уменьшилась в 10 раз. Владельцы сайта не видят смысла в поддержке погодного сервера в таких условиях. Сайт будет закрыт в октябре.
темп.,
°C
ветер,
м/с
пор.,
м/с
влажн.,
%
обл.,
%
осадки,
мм/ч
давл.,
гПа
погр.,
м
25 сентября, вс
вс2523:00+19сз2248100 0.0 101016
02:00+17сз2260100 0.0 101031
05:00+17ссз2357100 0.0 100967
08:00+16с61077100 0.9 1005246
11:00+21вюв4858100 0.9 1001587
14:00+12з71290100 1.6 1003537
17:00+12зюз51079100 2.2 1007919
20:00+11зюз5127814 0.1 1008566
26 сентября, пн
пн2623:00+11зюз268176 0.2 1009392
02:00+9юз5108513 0.2 1009390
05:00+7юз389516 0.2 1010256
08:00+9зюз598622 0.1 1010535
11:00+10зюз597795 0.1 1012678
14:00+12зюз7864100 0.4 10121182
17:00+11зюз696580 0.5 10131219
20:00+9зюз5980100 0.1 1014908
27 сентября, вт
вт2723:00+9юз4884100 0.4 1014672
02:00+7з389160 0.1 1015261
05:00+7зюз369296 0.2 1015183
08:00+8зюз4784100 0.3 1016367
11:00+9з457798 0.4 1017440
14:00+12з455889 0.1 10171213
17:00+12зсз455489 0.4 10171319
20:00+9сз22695 0.1 101923
28 сентября, ср
ср2823:00+7сз227680 0.1 101910
02:00+7с0080100 0.0 102010
05:00+6ю118294 0.0 102010
08:00+7юв1180100 0.0 102010
11:00+10ю1163100 0.0 1020398
14:00+10юв1268100 0.1 1020288
17:00+9в3475100 0.2 1020215
20:00+9в4780100 0.0 1020238
29 сентября, чт
чт2923:00+9в4880100 0.1 1021329
02:00+7в61088100 2.3 1021371
05:00+6вюв61188100 3.7 1021395
08:00+5вюв71289100 2.4 1021412
11:00+5вюв81387100 4.5 1021500
14:00+4вюв91487100 3.1 1021502
17:00+4в81487100 4.9 1022516
20:00+3в91585100 1.0 1024575